Lapse_Rate
2.1 0.2 -1.2 -2.2 -2.0 -2.6 -2.5 -3.4 -2.3 -3.3 -2.3 -1.6 -0.8 0.4 1.6 1.6 1.9 2.0 2.3 2.2 2.2 2.4 2.0 2.1 2.3 2.6 2.4 3.3 3.7 3.5 3.4 3.5 2.9 3.5 3.2 3.3 2.8 2.8 2.8 2.2 2.0 2.4 2.3
1.2 0.4 -0.8 -2.2 -2.6 -2.6 -2.5 -2.2 -2.3 -2.2 -2.3 -1.3 -0.5 0.5 1.4 1.8 2.4 2.1 2.0 2.2 2.6 2.8 3.1 2.6 2.7 2.9 2.9 3.0 2.9 3.2 4.5 5.2 4.8 4.5 5.2 5.6 5.6 4.0 4.0 3.7 3.2 3.0 3.4
2.0 1.2 -0.1 -1.0 -1.8 -2.6 -2.8 -1.8 -1.8 -1.4 -1.1 -0.7 0.4 0.9 1.6 1.8 1.5 1.5 1.9 1.7 2.5 2.8 2.5 2.2 2.2 2.5 2.8 3.3 3.6 3.8 4.7 6.6 6.5 5.8 5.4 6.3 6.6 6.7 6.1 3.8 2.9 3.3 3.5
2.9 1.8 1.4 -0.1 -1.0 -0.9 -1.0 -1.1 -0.8 -0.5 0.3 -0.3 0.6 0.1 0.6 0.6 0.9 1.1 1.2 1.5 1.4 1.4 1.9 1.7 1.5 1.4 1.9 2.2 3.0 4.1 3.9 4.8 5.7 6.0 6.6 6.2 6.0 6.4 6.5 7.2 5.1 3.6 4.2
1.9 1.9 1.2 0.6 0.3 -0.1 -0.9 -1.0 -0.2 -0.0 0.0 0.1 -0.1 0.5 0.4 0.4 0.6 0.3 0.5 0.1 0.7 0.8 1.5 1.5 1.2 1.5 2.1 2.0 2.0 2.6 2.7 3.2 4.3 4.9 5.5 5.4 5.6 6.2 7.1 7.0 7.2 7.7 7.2
2.1 1.8 1.2 0.9 0.3 -0.0 -0.3 -0.4 0.2 -0.2 -0.1 0.1 -0.2 -0.4 -0.4 0.0 0.2 -0.3 -0.2 0.0 0.3 0.3 1.0 1.4 1.8 2.2 2.7 3.0 3.2 3.0 2.7 3.1 3.4 4.0 4.7 5.6 6.7 6.7 6.7 6.8 7.1 7.0 7.4
1.9 1.8 1.6 1.0 0.6 0.2 0.4 0.7 0.3 -0.2 -0.1 -0.1 -0.4 -0.5 -0.7 -0.8 -0.5 -0.4 -0.1 -0.1 0.2 0.2 0.7 1.2 1.6 2.3 2.8 3.2 3.5 3.3 3.3 3.9 4.0 4.5 5.0 5.4 6.1 6.6 7.0 6.9 7.5 7.4 7.4
1.6 1.7 1.1 0.6 0.2 0.1 -0.3 -0.2 -0.2 -0.1 -0.3 -0.4 -0.8 -0.9 -0.8 -0.3 -0.1 -0.4 -0.4 0.1 0.5 0.9 1.4 1.7 2.0 2.4 3.0 3.5 4.0 4.0 4.1 5.1 4.7 4.7 5.2 6.0 6.4 6.4 6.5 6.8 6.8 6.9 7.3
1.6 1.5 1.0 0.3 -0.3 -0.3 -0.3 -0.1 -0.1 -0.4 -0.8 -1.0 -1.0 -1.5 -1.4 -1.3 -1.2 -1.3 -1.0 -0.4 0.3 2.2 1.7 1.2 1.6 2.2 2.7 3.2 3.6 4.3 4.9 5.7 5.9 5.6 5.9 6.0 6.4 6.2 6.5 6.8 7.0 7.2 7.1
1.9 1.4 0.7 -0.0 -0.3 -0.3 -0.4 -0.4 -0.5 -0.8 -0.9 -1.0 -1.1 -1.0 -1.3 -1.4 -1.3 -1.0 -0.7 -0.2 0.4 0.7 0.9 1.3 1.6 2.0 2.2 2.6 3.0 3.8 4.5 5.8 7.0 7.6 6.4 6.5 6.6 6.4 6.7 6.8 7.1 7.2 7.6
1.6 0.9 0.4 0.2 -0.2 -0.4 -0.3 -0.5 -0.6 -0.5 -0.6 -0.7 -0.9 -1.1 -0.9 -0.7 -0.3 -0.2 -0.2 -0.2 0.1 0.5 0.9 1.2 1.4 1.7 2.1 2.5 2.9 3.8 5.1 6.1 6.5 6.9 7.0 7.0 7.0 7.0 7.2 6.9 7.0 6.8 7.3
1.1 0.2 0.2 -0.0 0.3 -0.0 -0.2 -0.4 -0.3 -0.3 -0.6 -0.6 -0.7 -0.6 -0.4 -0.5 -0.6 -0.6 -0.4 -0.2 -0.2 0.4 0.7 1.1 1.3 1.7 2.1 2.5 3.3 4.0 5.3 6.1 6.5 7.1 7.5 7.7 8.5 7.1 7.1 7.1 7.2 7.2 6.7
0.7 0.7 0.5 0.8 0.6 0.4 0.2 -0.2 -0.5 -0.7 -0.6 -0.5 -0.8 -0.8 -0.6 -0.6 -0.8 -0.5 -0.2 0.1 0.3 0.4 0.6 1.0 1.4 1.8 2.1 2.5 3.1 4.2 5.0 6.1 7.0 7.7 8.0 7.5 7.7 7.6 7.5 7.3 7.4 8.3 7.9
1.2 0.6 1.2 1.0 0.8 0.6 -0.0 -0.3 -0.3 -0.2 -0.1 -0.3 -0.2 0.1 -0.1 -0.4 -0.3 0.2 0.1 0.1 0.4 0.5 0.8 1.1 1.7 2.0 2.3 2.9 4.1 4.7 5.4 6.3 7.3 7.6 7.2 7.3 8.0 8.1 8.1 8.2 8.1 8.3 7.7
2.0 1.8 1.6 0.7 0.5 0.2 0.1 0.1 0.2 0.2 0.2 0.3 0.7 0.6 0.1 0.2 0.2 0.2 0.1 0.2 0.5 1.1 1.3 1.6 1.8 2.1 2.9 5.0 5.3 6.0 6.5 7.0 7.5 7.3 7.2 7.7 8.1 9.2 9.2 8.9 8.3 8.0 7.9
2.4 1.9 1.4 1.0 0.6 0.3 0.5 0.8 0.6 0.7 0.5 0.8 0.6 0.5 0.6 0.5 0.5 0.5 0.4 0.5 0.8 0.8 1.1 1.6 2.0 2.2 3.9 5.3 6.7 7.8 8.2 8.1 8.0 7.8 8.0 8.0 8.5 8.8 9.4 9.3 9.4 8.9 8.2
1.1 1.2 1.3 1.2 0.6 0.7 0.8 0.9 1.0 1.1 1.5 0.5 0.4 0.9 0.9 0.7 0.6 0.7 0.7 0.8 0.5 0.7 1.5 1.9 2.4 2.9 3.7 6.0 7.1 8.5 8.6 8.3 8.2 8.1 7.9 8.0 8.9 8.6 8.3 8.8 9.3 9.0 9.2
0.8 1.0 0.8 0.7 0.8 0.7 0.9 1.1 2.2 1.8 0.9 0.8 0.8 0.8 0.8 0.7 0.9 0.7 0.5 0.2 1.2 1.7 2.2 2.5 3.2 3.8 4.4 6.3 7.6 9.4 8.7 8.4 8.3 8.1 8.0 8.1 7.8 7.9 8.7 8.6 7.8 7.0 7.8
0.0 0.5 0.8 0.9 0.3 0.8 2.1 2.6 2.1 0.7 1.3 1.5 1.1 0.7 0.9 1.0 1.1 0.6 0.6 1.4 2.0 2.6 3.0 3.7 3.8 3.8 3.8 6.7 8.3 9.2 8.6 8.4 8.2 8.2 8.3 8.1 8.0 9.1 9.2 8.0 7.6 8.2 7.5
0.7 0.7 0.7 0.5 1.2 1.7 1.6 1.5 1.3 1.5 1.7 1.3 0.8 0.9 1.2 1.0 0.6 1.2 1.6 2.2 2.6 3.4 3.5 3.7 3.7 4.7 5.3 6.7 9.4 9.2 8.7 8.4 8.3 8.1 8.0 8.6 9.0 9.3 9.1 9.0 8.5 7.6 7.6
1.3 1.1 1.3 1.6 1.6 1.8 2.5 1.7 2.0 1.7 1.0 0.8 0.8 1.0 0.9 1.0 1.1 1.4 1.9 2.7 3.0 3.5 3.1 3.2 3.8 4.9 6.6 7.8 9.5 9.5 8.9 8.7 8.4 7.1 8.1 8.2 9.1 8.5 9.4 9.3 8.1 8.3 8.8
1.4 1.7 1.5 1.6 2.1 2.9 2.0 3.0 2.6 1.3 0.7 0.6 0.7 0.7 0.8 1.5 3.2 2.0 2.1 2.4 2.9 3.2 3.5 4.3 5.3 6.9 8.0 9.2 9.3 9.4 9.4 9.2 8.4 8.3 8.3 8.2 7.6 9.3 9.3 9.0 9.3 9.3 9.0
2.0 2.2 2.2 2.4 2.4 2.5 2.3 2.1 1.7 0.8 0.7 0.3 0.4 0.6 1.1 1.7 2.0 2.4 3.2 3.7 3.8 4.4 5.1 6.3 7.3 8.2 8.5 8.2 8.9 9.3 9.3 9.2 8.8 8.5 8.3 7.5 9.2 9.3 8.3 9.2 9.3 9.2 7.9
2.3 2.7 3.0 3.6 4.4 2.8 2.1 1.5 0.9 0.7 0.5 0.4 0.6 1.2 1.2 2.4 2.7 2.4 3.6 4.1 4.9 6.0 6.9 7.8 8.2 7.9 8.2 7.9 7.8 8.2 8.2 8.8 8.6 7.6 6.4 8.6 8.8 8.4 9.0 8.7 8.2 7.6 8.1
2.9 3.6 4.1 3.8 3.0 1.6 1.3 1.1 1.3 1.0 1.2 1.4 1.8 1.6 1.8 1.8 2.8 3.7 4.2 5.7 6.6 7.7 8.3 8.4 8.3 8.0 7.8 8.2 9.1 8.9 8.9 8.7 8.2 8.9 8.5 8.0 7.8 8.1 8.3 8.3 8.2 7.7 7.8
3.5 3.3 3.2 2.5 1.9 1.1 0.9 1.2 1.4 1.7 1.5 2.0 2.7 2.7 3.5 3.1 4.2 4.6 5.2 7.5 8.8 9.5 9.5 9.5 9.1 9.0 9.2 9.3 9.2 9.4 9.1 9.1 9.5 8.7 8.2 7.5 7.8 8.1 8.2 8.2 8.2 7.4 7.8
Wind_Speed
3 6 8 8 9 8 8 9 11 9 5 4 3 2 1 2 2 2 5 6 6 6 4 4 5 5 4 7 7 5 7 8 6 6 7 9 11 12 11 10 11 13 14
6 7 8 8 8 7 10 12 12 11 6 3 2 2 3 3 3 4 7 12 11 11 6 6 5 5 5 6 6 5 7 6 6 4 7 5 4 6 10 9 9 13 10
7 5 7 7 8 10 9 11 10 11 10 8 4 4 4 4 4 5 5 7 10 12 10 8 7 7 6 6 7 6 8 8 8 7 6 7 8 9 6 7 7 11 9
2 5 6 7 7 7 7 8 10 10 10 9 9 10 5 4 3 3 3 5 11 9 13 9 8 7 5 7 7 7 7 8 8 8 5 9 11 9 11 4 5 7 9
6 6 7 7 5 6 7 7 9 11 9 11 8 7 7 3 2 4 7 7 7 9 12 11 9 8 6 6 6 9 9 4 6 7 8 9 8 8 9 14 10 10 7
6 5 6 6 7 6 7 7 10 10 9 10 10 10 9 7 8 8 8 7 5 5 8 10 8 7 8 9 8 8 8 7 7 6 6 7 7 9 9 12 14 13 11
6 6 7 7 7 7 6 6 9 9 7 10 11 10 8 8 8 7 7 8 8 7 10 10 10 9 9 9 8 8 8 8 7 8 7 6 7 7 8 9 12 12 12
6 7 7 6 7 7 7 7 8 9 8 9 9 7 7 5 5 6 5 5 5 5 7 9 8 9 10 9 9 7 6 9 8 10 7 7 8 8 8 9 10 13 13
7 7 6 6 7 7 7 7 7 7 7 7 6 7 6 7 6 6 4 4 5 7 9 7 7 9 9 10 11 7 10 11 9 6 7 8 8 8 8 8 9 9 12
7 7 6 6 6 6 6 7 7 7 6 6 6 6 6 6 6 6 7 6 6 6 7 8 8 9 10 10 11 9 11 11 7 10 12 10 10 10 7 7 8 8 9
7 7 6 6 6 6 6 6 7 7 7 6 5 7 8 7 6 5 5 6 6 7 8 9 9 10 10 11 11 11 11 13 11 11 13 15 13 9 8 7 8 9 9
7 7 7 7 6 6 6 6 6 6 5 5 6 6 5 5 6 6 6 6 6 7 7 9 9 10 10 10 11 12 11 11 13 13 12 12 10 10 8 8 13 11 6
7 7 6 6 5 5 5 5 6 6 5 5 5 5 5 6 6 6 7 7 8 9 9 9 9 10 11 11 11 9 12 13 13 10 11 14 12 11 10 11 11 9 7
8 6 6 6 5 5 5 5 5 5 5 5 6 5 6 6 6 6 6 7 7 7 9 9 10 10 11 12 11 14 13 12 10 10 11 12 13 13 15 13 14 11 11
7 8 7 6 5 5 5 4 5 5 4 5 5 5 5 5 6 6 6 6 6 8 9 10 11 11 10 9 15 15 15 14 14 13 12 12 17 25 20 13 15 14 13
7 7 7 7 6 5 4 4 3 3 4 4 4 4 5 6 6 6 8 8 8 8 9 10 11 12 9 23 25 22 14 14 14 14 14 14 19 17 26 26 29 24 17
7 8 7 6 6 5 5 4 2 2 1 2 4 5 5 6 7 7 7 8 9 9 10 10 11 12 12 23 26 27 14 13 14 14 15 14 11 18 14 22 27 24 28
6 7 6 6 6 4 3 3 2 1 4 5 5 5 5 6 6 7 7 8 7 8 10 11 11 12 11 24 26 27 14 13 14 14 15 14 14 15 20 19 18 15 17
6 6 6 5 5 5 3 3 2 5 5 5 5 5 5 6 6 7 8 8 8 9 9 10 12 12 13 24 25 23 14 14 15 15 14 14 16 24 31 20 19 20 16
6 7 6 6 6 4 4 3 4 3 4 5 5 5 5 6 7 7 9 5 7 10 10 13 11 15 13 21 25 23 11 14 12 14 12 21 21 31 30 22 18 16 18
7 6 6 6 5 4 3 4 3 4 5 5 5 6 6 6 7 6 5 8 10 9 10 12 11 11 11 14 25 28 15 12 12 10 12 12 28 27 32 32 14 19 23
6 5 5 5 3 3 3 2 3 4 4 5 5 6 7 6 7 7 8 8 8 10 11 12 11 9 10 18 22 27 27 25 14 14 13 14 23 30 31 22 30 31 25
5 4 5 5 3 3 3 2 4 4 5 5 6 6 8 7 7 7 9 8 8 8 10 9 10 10 10 10 23 26 26 26 17 13 21 20 26 29 19 26 29 27 11
5 4 5 4 3 2 1 3 4 5 5 6 7 7 6 9 6 4 6 6 7 8 9 10 11 11 10 10 10 11 11 19 16 19 9 17 21 22 21 17 15 11 11
5 5 4 3 1 2 3 4 5 4 5 6 7 7 6 7 8 6 6 7 7 9 11 10 10 11 11 12 23 21 14 14 17 21 10 10 11 11 12 12 12 12 12
5 4 3 2 2 3 5 5 5 5 5 6 6 6 6 6 7 8 8 13 17 21 23 24 18 11 21 27 29 29 29 28 32 16 10 9 10 12 13 13 13 13 17
Wind_Direction
20 26 25 22 20 22 25 24 33 15 52 65 71 60 329 360 13 347 326 322 316 304 270 269 282 284 273 283 290 283 275 282 268 277 273 262 254 252 249 245 246 246 241
52 32 28 29 24 29 33 36 33 31 34 60 65 93 87 61 57 30 36 32 38 32 31 6 343 324 310 307 298 287 294 282 283 264 283 288 283 247 243 247 245 249 252
112 81 55 40 30 36 30 40 31 37 36 32 47 47 45 35 26 22 27 19 32 34 29 21 15 5 360 347 331 317 307 302 297 270 270 295 294 309 266 238 237 243 243
130 99 85 58 47 35 38 45 45 43 39 31 60 64 60 62 13 3 358 17 22 23 23 14 8 0 354 355 343 343 334 331 322 318 290 272 288 303 306 267 273 260 256
139 117 97 88 68 56 54 50 59 51 42 50 53 64 63 48 12 13 23 17 13 15 19 9 1 356 351 338 331 336 337 322 323 317 316 314 306 298 302 305 305 295 284
150 117 101 96 79 62 56 55 67 51 44 53 48 55 53 39 36 21 20 7 6 3 10 0 356 347 344 340 332 326 323 319 313 313 314 310 310 308 308 304 305 298 295
160 138 115 99 90 80 67 70 68 59 49 57 52 44 44 42 38 21 13 8 4 3 359 357 353 349 342 336 331 322 311 311 305 307 307 305 304 303 302 300 302 298 306
173 147 129 120 112 100 80 73 67 64 50 55 51 45 42 43 36 24 14 7 356 339 346 344 343 340 337 335 333 325 316 316 308 303 306 308 308 300 295 292 295 303 301
169 147 125 125 113 92 81 84 80 68 57 55 61 47 40 37 25 12 4 357 349 350 346 334 334 336 337 336 332 326 326 322 317 314 316 311 310 301 295 288 302 300 306
160 140 132 125 100 96 89 74 71 74 64 57 47 47 32 26 18 13 7 354 341 338 336 340 340 339 338 335 335 328 327 322 333 328 327 309 308 305 294 304 304 301 297
171 154 138 119 109 96 78 72 64 62 51 51 46 39 26 17 4 3 352 349 334 332 336 339 337 338 335 333 330 328 326 331 327 323 317 311 310 306 320 309 318 308 300
172 150 141 129 114 92 75 68 61 62 50 49 45 35 17 6 5 353 339 333 334 335 335 336 334 333 330 326 322 319 327 320 323 319 316 320 330 319 319 319 309 301 302
146 139 133 132 112 95 80 68 56 54 53 57 50 32 17 3 353 339 343 343 340 339 337 335 330 328 326 323 316 321 320 319 320 322 328 320 316 315 313 311 299 294 298
158 144 136 125 113 96 86 71 60 51 49 44 34 18 6 354 345 323 331 336 331 323 329 332 327 326 324 320 327 327 325 324 315 322 316 313 317 314 316 307 308 304 306
151 151 145 137 127 105 89 76 59 47 46 43 26 356 343 339 330 324 326 321 328 332 326 325 325 324 323 325 330 325 322 321 319 319 317 314 313 312 314 317 313 310 308
166 154 144 143 126 120 112 95 78 50 50 38 9 351 345 335 325 327 335 334 326 326 323 319 319 322 322 323 326 328 321 319 318 315 314 310 309 308 315 312 312 310 315
166 154 149 142 139 140 147 138 106 52 28 32 15 358 337 330 333 330 327 324 329 319 317 321 318 314 313 320 325 326 320 319 314 310 309 307 307 312 300 303 308 305 305
150 143 144 135 145 146 127 132 88 30 27 12 350 338 328 330 324 317 312 320 316 312 316 313 309 307 309 321 325 325 321 313 307 303 302 304 311 303 311 311 318 309 303
155 150 150 145 129 130 136 108 40 30 11 338 314 334 334 323 308 322 322 307 307 319 312 307 306 307 309 320 323 326 319 311 308 306 310 311 304 310 320 324 316 313 308
122 134 128 127 132 130 119 99 38 7 335 325 320 325 310 307 328 301 299 296 306 305 304 303 302 306 309 308 321 325 319 311 311 309 307 305 314 316 325 326 320 321 313
121 123 125 134 144 149 108 65 4 331 310 312 319 313 325 310 279 287 292 306 306 298 299 304 309 304 301 309 320 324 320 315 314 315 314 309 313 325 331 323 329 312 314
134 134 129 138 141 90 72 35 308 298 315 323 316 314 296 299 304 296 298 294 295 302 308 308 307 307 301 311 318 319 320 320 321 315 310 312 330 334 329 333 321 323 324
150 135 135 132 128 112 76 319 295 322 323 326 317 301 298 294 292 292 299 306 306 304 302 305 306 310 316 313 312 313 315 318 319 315 312 338 333 331 330 324 325 325 315
162 149 145 159 155 95 263 265 309 328 331 309 297 296 292 305 294 279 285 294 299 297 300 304 312 314 315 314 308 311 313 317 317 310 332 327 330 327 321 322 320 317 313
167 157 150 146 220 272 327 327 321 323 308 294 288 287 287 286 303 296 286 293 284 295 310 311 313 315 315 313 318 323 321 321 324 330 326 327 326 321 322 321 321 318 314
153 144 151 162 307 333 316 313 319 316 297 294 299 299 305 303 304 302 303 297 305 311 313 315 316 315 316 316 321 322 326 330 333 323 316 321 318 322 322 321 320 317 313